287  
ASUS43 KIWX 171910  
RWRIWX  
 
KIWX WEATHER ROUNDUP  
NATIONAL WEATHER SERVICE NORTHERN INDIANA  
300 PM EDT TUE SEP 17 2019  
 
NOTE: "FAIR" INDICATES FEW OR NO CLOUDS BELOW 12,000 FEET WITH NO  
SIGNIFICANT WEATHER AND/OR S TO VISIBILITY
.  
 
* THESE STATIONS ARE NOT UNDER NWS QUALITY CONTROL. THEY ALSO MAY NOT  
REPORT WEATHER SUCH AS PRECIPITATION OR FOG.
 
 
INZ001>027-172000-  
NORTHERN INDIANA  
 
CITY SKY/WX TMP DP RH WIND PRES REMARKS
 
GARY* PTSUNNY 73 66 78 NE3 30.17S  
VALPARAISO FAIR 80 62 54 E7 30.16F  
MICHIGAN CITY* FAIR 77 66 69 SE5 30.17S  
LAPORTE* FAIR 77 60 56 E6 30.17F  
KNOX* FAIR 73 61 64 CALM 30.17S  
SOUTH BEND FAIR 76 61 59 VRB5 30.18F  
ELKHART* FAIR 75 63 64 E5 30.18F  
GOSHEN FAIR 74 61 63 VRB5 30.18F  
MONTICELLO* PTSUNNY 75 64 68 NE6 30.15F  
LOGANSPORT* PTSUNNY 77 63 61 E5 30.16F  
ROCHESTER* FAIR 75 61 60 E7 30.17F  
WARSAW* FAIR 70 61 73 E3 30.17F  
KENDALLVILLE* PTSUNNY 71 59 66 CALM 30.19F  
AUBURN* FAIR 73 63 68 E5 30.18F  
FORT WAYNE PTSUNNY 76 62 62 E8 30.17F  
HUNTINGTON* FAIR 76 60 59 NE7 30.16F  
PERU/GRISSOM FAIR 77 63 61 E9 30.14F  
 

 
INZ028>050-172000-  
CENTRAL INDIANA  
 
CITY SKY/WX TMP DP RH WIND PRES REMARKS
 
LAFAYETTE PTSUNNY 75 65 70 E7 30.14F  
KOKOMO* PTSUNNY 77 64 64 E7 30.16F  
MUNCIE* FAIR 77 64 64 NE8 30.15F  
INDIANAPOLIS PTSUNNY 80 62 54 NE9 30.12F  
 

 
MIZ043>046-050>051-056>058-064>065-071>073-077>080-172000-  
SOUTHWEST LOWER MICHIGAN  
 
CITY SKY/WX TMP DP RH WIND PRES REMARKS
 
BATTLE CREEK FAIR 71 60 68 E5 30.21F  
BENTON HARBOR FAIR 78 61 55 E6 30.17F  
COLDWATER* CLOUDY 67 61 79 NE6 30.21S  
HILLSDALE* CLOUDY 73 60 65 E3 30.20S  
HOLLAND FAIR 77 64 64 E7 30.18F  
GRAND RAPIDS FAIR 69 59 70 E10 30.21F  
KALAMAZOO FAIR 73 59 61 SE5 30.20F  
STURGIS* FAIR 72 60 66 E3 30.19F  
THREE RIVERS* FAIR 72 60 66 E6 30.20F  
 

 
OHZ001>008-015>018-024>025-172000-  
NORTHWEST OHIO  
 
CITY SKY/WX TMP DP RH WIND PRES REMARKS
 
WAUSEON* FAIR 77 64 65 E7 30.18F  
DEFIANCE PTSUNNY 75 61 61 E8 30.17F  
FINDLAY PTSUNNY 78 62 57 NE8 30.16F  
OTTAWA* FAIR 77 61 57 NE10 30.18F  
TOLEDO EXPRESS FAIR 78 60 53 E10 30.18F  
LIMA PTSUNNY 77 62 59 NE13 30.15F  
 

 
AND FOR LAKE MICHIGAN COASTAL AND OPEN LAKE BUOY OBSERVATIONS  
 
STATION/POSITION TEMP WIND PRES VSBY WAVE
 
AIR SEA DIR/SP/G HT/PER  
(F) (DEG/KT/KT) (MB) (MI) (FT/S)  
CALUMET HARBOR 69 20/ 6/ 8 1020.8F  
MICHIGAN CITY 69 20/ 13/ 13 N/A  
BURNS HARBOR 69 10/ 3/ 4 1021.7F  
SAINT JOSEPH 71 330/ 4/ 6 1022.4  
SOUTH LAKE BUOY 64 68 130/ 4/ 4 1022.4F 1/ 4  
4 MI NW BRIDGMAN 70 69 360/ 8/ 8 1021.3 0  
MICHIGAN CITY 69 69 20/ 10/ 12 N/A 1  
 

 

 
 
 
CLICK HERE TO GO TO PREVIOUS BULLETINS.

The Nexlab IN Page
The Nexlab OH Page
The Nexlab MI Page Main Text Page